FW6366 Weather Reports


Display with metric or nautical units.
time (UTC)temp
F
wind
direction
speed
MPH
gust
MPH
rain 1hr
in
rain 24hr
in
rain mn
in
humidity
%
barometer
mb
20260509112557 36 52 0.0 2.0 0.00 0.00 0.00 93 1013.7
20260509112057 36 86 0.0 2.0 0.00 0.00 0.00 93 1013.8
20260509111600 35 0 0.0 1.0 0.00 0.00 0.00 93 1013.8
20260509111100 35 0 0.0 0.0 0.00 0.00 0.00 93 1013.9
20260509110600 35 0 0.0 2.0 0.00 0.00 0.00 93 1013.9
20260509110109 34 0 1.0 2.0 0.00 0.00 0.00 94 1013.9
20260509105557 34 349 0.0 2.0 0.00 0.00 0.00 94 1013.9
20260509105057 34 7 0.0 2.0 0.00 0.00 0.00 94 1014.0
20260509104600 33 0 0.0 1.0 0.00 0.00 0.00 94 1013.9
20260509104059 33 0 0.0 1.0 0.00 0.00 0.00 94 1014.0
20260509103603 33 0 0.0 0.0 0.00 0.00 0.00 94 1013.9
20260509103103 32 0 0.0 0.0 0.00 0.00 0.00 94 1013.8
20260509102557 32 0 0.0 0.0 0.00 0.00 0.00 94 1013.7
20260509102124 32 0 0.0 0.0 0.00 0.00 0.00 94 1013.6
20260509101618 32 0 0.0 0.0 0.00 0.00 0.00 94 1013.6
20260509101059 32 0 0.0 0.0 0.00 0.00 0.00 94 1013.6
20260509100557 31 0 0.0 0.0 0.00 0.00 0.00 94 1013.5
20260509100104 31 0 0.0 0.0 0.00 0.00 0.00 94 1013.5
20260509095557 31 0 0.0 0.0 0.00 0.00 0.00 94 1013.6
20260509095056 31 0 0.0 0.0 0.00 0.00 0.00 94 1013.6
20260509094609 31 0 0.0 0.0 0.00 0.00 0.00 94 1013.6
20260509094106 30 0 0.0 0.0 0.00 0.00 0.00 94 1013.7
20260509093600 30 0 0.0 0.0 0.00 0.00 0.00 94 1013.5
20260509093100 30 0 0.0 0.0 0.00 0.00 0.00 94 1013.5
20260509092602 30 0 0.0 0.0 0.00 0.00 0.00 94 1013.6
20260509092103 30 0 0.0 0.0 0.00 0.00 0.00 94 1013.6
20260509091607 30 0 0.0 1.0 0.00 0.00 0.00 94 1013.7
20260509091057 31 0 0.0 1.0 0.00 0.00 0.00 94 1013.7
20260509090601 30 0 0.0 1.0 0.00 0.00 0.00 94 1013.5
20260509090105 31 0 0.0 1.0 0.00 0.00 0.00 94 1013.5
20260509085558 31 0 0.0 1.0 0.00 0.00 0.00 94 1013.5
20260509085059 30 0 0.0 1.0 0.00 0.00 0.00 94 1013.4
20260509084602 30 0 0.0 1.0 0.00 0.00 0.00 93 1013.4
20260509084057 31 0 0.0 1.0 0.00 0.00 0.00 93 1013.4
20260509083559 31 0 0.0 1.0 0.00 0.00 0.00 94 1013.4
20260509083103 31 0 0.0 1.0 0.00 0.00 0.00 93 1013.3
20260509082600 31 0 0.0 1.0 0.00 0.00 0.00 93 1013.3
20260509082100 31 0 0.0 1.0 0.00 0.00 0.00 93 1013.4
20260509081559 31 0 0.0 1.0 0.00 0.00 0.00 93 1013.4
20260509081100 31 0 0.0 2.0 0.00 0.00 0.00 93 1013.4
20260509080601 31 0 1.0 2.0 0.00 0.00 0.00 93 1013.4
20260509080100 31 293 1.0 2.0 0.00 0.00 0.00 93 1013.5
20260509075559 31 316 0.0 1.0 0.00 0.00 0.00 93 1013.3
20260509075057 31 0 0.0 1.0 0.00 0.00 0.00 93 1013.2
20260509074559 31 0 0.0 1.0 0.00 0.00 0.00 93 1013.2
20260509074100 31 0 0.0 1.0 0.00 0.00 0.00 93 1013.4
20260509073600 31 202 0.0 1.0 0.00 0.00 0.00 93 1013.1
20260509073109 31 0 0.0 1.0 0.00 0.00 0.00 92 1013.2
20260509072557 31 0 0.0 1.0 0.00 0.00 0.00 92 1013.2
20260509072100 31 0 0.0 0.0 0.00 0.00 0.00 92 1013.2
20260509071606 32 0 0.0 0.0 0.00 0.00 0.00 92 1013.3
20260509071059 32 0 0.0 0.0 0.00 0.00 0.00 92 1013.2
20260509070600 32 0 0.0 0.0 0.00 0.00 0.00 92 1013.3
20260509070057 32 0 0.0 0.0 0.00 0.00 0.00 92 1013.5
20260509065603 32 0 0.0 0.0 0.00 0.00 0.00 92 1013.5
20260509065058 32 0 0.0 0.0 0.00 0.00 0.00 92 1013.5
20260509064604 33 0 0.0 0.0 0.00 0.00 0.00 91 1013.5
20260509064102 33 0 0.0 0.0 0.00 0.00 0.00 91 1013.7
20260509063601 33 0 0.0 1.0 0.00 0.00 0.00 91 1013.8
20260509063100 33 0 0.0 1.0 0.00 0.00 0.00 91 1013.7
20260509062559 33 283 0.0 1.0 0.00 0.00 0.00 91 1013.7
20260509062100 33 0 0.0 1.0 0.00 0.00 0.00 91 1013.7
20260509061603 34 0 0.0 1.0 0.00 0.00 0.00 91 1013.6
20260509061100 34 294 0.0 1.0 0.00 0.00 0.00 91 1013.7
20260509060600 34 0 0.0 1.0 0.00 0.00 0.00 91 1013.7
20260509060110 34 0 0.0 1.0 0.00 0.00 0.00 91 1013.7
20260509055600 34 0 0.0 1.0 0.00 0.00 0.00 91 1013.7
20260509055059 34 0 0.0 1.0 0.00 0.00 0.00 91 1013.7
20260509054606 34 0 0.0 1.0 0.00 0.00 0.00 90 1013.8
20260509054059 34 327 0.0 1.0 0.00 0.00 0.00 90 1013.8
20260509053603 34 0 0.0 2.0 0.00 0.00 0.00 90 1013.7
20260509053134 34 319 0.0 2.0 0.00 0.00 0.00 90 1013.8
20260509052600 34 0 0.0 2.0 0.00 0.00 0.00 90 1013.7
20260509052100 34 0 0.0 1.0 0.00 0.00 0.00 90 1013.7
20260509051559 35 0 0.0 1.0 0.00 0.00 0.00 90 1013.7
20260509051059 34 0 0.0 1.0 0.00 0.00 0.00 89 1013.6
20260509050559 34 0 0.0 1.0 0.00 0.00 0.00 89 1013.5
20260509050100 35 0 0.0 1.0 0.00 0.00 0.00 89 1013.5
20260509045601 35 0 0.0 1.0 0.00 0.00 0.00 89 1013.5
20260509045101 35 0 0.0 1.0 0.00 0.00 0.00 89 1013.4
20260509044659 35 0 0.0 1.0 0.00 0.00 0.00 89 1013.4
20260509044059 35 0 0.0 1.0 0.00 0.00 0.00 89 1013.4
20260509043600 35 0 0.0 1.0 0.00 0.00 0.00 89 1013.4
20260509043139 35 0 0.0 1.0 0.00 0.00 0.00 89 1013.4
20260509042558 35 0 0.0 0.0 0.00 0.00 0.00 89 1013.4
20260509042100 35 0 0.0 0.0 0.00 0.00 0.00 88 1013.2
20260509041558 35 0 0.0 0.0 0.00 0.00 0.00 88 1013.3
20260509041100 36 0 0.0 0.0 0.00 0.00 0.00 88 1013.2
20260509040603 36 0 0.0 0.0 0.00 0.00 0.00 88 1013.1
20260509040104 36 0 0.0 1.0 0.00 0.00 0.00 87 1013.1
20260509035559 36 0 0.0 1.0 0.00 0.00 0.00 87 1013.2
20260509035100 36 0 0.0 1.0 0.00 0.00 0.00 87 1013.2
20260509034557 36 0 0.0 1.0 0.00 0.00 0.00 87 1013.3
20260509034059 36 0 0.0 1.0 0.00 0.00 0.00 86 1013.3
20260509033603 36 0 0.0 1.0 0.00 0.00 0.00 86 1013.3
20260509033058 37 0 0.0 1.0 0.00 0.00 0.00 86 1013.4
20260509032600 37 0 0.0 1.0 0.00 0.00 0.00 86 1013.4
20260509032059 37 0 0.0 1.0 0.00 0.00 0.00 86 1013.3
20260509031602 37 0 0.0 1.0 0.00 0.00 0.00 86 1013.3
20260509031100 37 0 0.0 0.0 0.00 0.00 0.00 86 1013.2
20260509030600 37 0 0.0 0.0 0.00 0.00 0.00 85 1013.2
20260509030113 37 0 0.0 0.0 0.00 0.00 0.00 84 1013.1
20260509025600 37 0 0.0 0.0 0.00 0.00 0.00 84 1013.2
20260509025102 38 0 0.0 1.0 0.00 0.00 0.00 83 1013.1
20260509024603 38 0 0.0 1.0 0.00 0.00 0.00 83 1013.1
20260509024059 38 0 0.0 1.0 0.00 0.00 0.00 83 1013.0
20260509023601 38 0 0.0 0.0 0.00 0.00 0.00 83 1012.9
20260509023100 39 0 0.0 0.0 0.00 0.00 0.00 82 1012.9
20260509022603 39 0 0.0 0.0 0.00 0.00 0.00 82 1012.9
20260509022103 39 0 0.0 0.0 0.00 0.00 0.00 82 1012.9
20260509021606 39 0 0.0 0.0 0.00 0.00 0.00 81 1012.8
20260509021103 39 0 0.0 1.0 0.00 0.00 0.00 81 1012.8
20260509020559 39 0 0.0 2.0 0.00 0.00 0.00 80 1012.7
20260509020107 39 0 0.0 2.0 0.00 0.00 0.00 80 1012.6
20260509015602 40 188 0.0 2.0 0.00 0.00 0.00 80 1012.5
20260509015058 40 0 0.0 2.0 0.00 0.00 0.00 79 1012.5
20260509014559 40 184 0.0 2.0 0.00 0.00 0.00 78 1012.4
20260509014059 41 0 0.0 1.0 0.00 0.00 0.00 78 1012.4
20260509013559 41 0 0.0 3.0 0.00 0.00 0.00 77 1012.2
20260509013100 42 184 0.0 3.0 0.00 0.00 0.00 76 1012.2
20260509012559 43 173 1.0 4.0 0.00 0.00 0.00 74 1012.2
20260509012059 43 0 0.0 4.0 0.00 0.00 0.00 73 1012.0
20260509011601 44 288 1.0 4.0 0.00 0.00 0.00 71 1012.0
20260509011059 44 292 1.0 3.0 0.00 0.00 0.00 71 1011.9
20260509010559 44 290 1.0 3.0 0.00 0.00 0.00 71 1011.8
20260509010059 45 285 1.0 3.0 0.00 0.00 0.00 70 1011.6
20260509005600 45 297 2.0 3.0 0.00 0.00 0.00 69 1011.5
20260509005059 45 291 2.0 3.0 0.00 0.00 0.00 69 1011.4
20260509004611 46 285 1.0 3.0 0.00 0.00 0.00 68 1011.3
20260509004101 46 283 1.0 3.0 0.00 0.00 0.00 67 1011.2
20260509003601 46 276 1.0 3.0 0.00 0.00 0.00 66 1011.1
20260509003100 47 254 1.0 2.0 0.00 0.00 0.00 66 1011.1
20260509002559 47 245 0.0 2.0 0.00 0.00 0.00 67 1011.1
20260509002100 48 265 0.0 4.0 0.00 0.00 0.00 65 1011.2
20260509001559 48 240 0.0 5.0 0.00 0.00 0.00 62 1011.1
20260509001059 48 187 1.0 5.0 0.00 0.00 0.00 60 1011.1
20260509000559 49 0 0.0 4.0 0.00 0.00 0.00 62 1011.2
20260509000106 49 211 1.0 5.0 0.00 0.00 0.00 60 1011.0
20260508235559 49 0 2.0 5.0 0.00 0.00 0.00 60 1011.1
20260508235059 49 179 0.0 4.0 0.00 0.00 0.00 61 1011.0
20260508234558 49 0 1.0 7.0 0.00 0.00 0.00 60 1010.9
20260508234105 49 203 2.0 7.0 0.00 0.00 0.00 61 1010.8
20260508233600 49 174 2.0 7.0 0.00 0.00 0.00 61 1010.7
20260508233100 49 197 1.0 6.0 0.00 0.00 0.00 61 1010.7
20260508232603 49 178 2.0 6.0 0.00 0.00 0.00 61 1010.7
20260508232057 49 193 2.0 6.0 0.00 0.00 0.00 62 1010.6
20260508231559 49 183 0.0 6.0 0.00 0.00 0.00 61 1010.5
20260508231100 50 191 2.0 7.0 0.00 0.00 0.00 60 1010.5
20260508230604 50 179 1.0 7.0 0.00 0.00 0.00 60 1010.4
20260508230059 50 161 3.0 7.0 0.00 0.00 0.00 58 1010.4
20260508225559 50 176 3.0 7.0 0.00 0.00 0.00 59 1010.3
20260508225100 50 190 2.0 7.0 0.00 0.00 0.00 60 1010.3
20260508224640 50 195 3.0 8.0 0.00 0.00 0.00 59 1010.2
20260508224100 50 198 4.0 8.0 0.00 0.00 0.00 58 1010.2
20260508223600 50 178 2.0 9.0 0.00 0.00 0.00 58 1010.3
20260508223100 50 235 3.0 9.0 0.00 0.00 0.00 58 1010.3
20260508222601 50 167 3.0 7.0 0.00 0.00 0.00 57 1010.2
20260508222059 50 184 1.0 8.0 0.00 0.00 0.00 59 1010.2
20260508221602 50 108 0.0 8.0 0.00 0.00 0.00 56 1010.2
20260508221100 50 170 1.0 14.0 0.00 0.00 0.00 56 1010.2
20260508220557 50 220 3.0 14.0 0.00 0.00 0.00 58 1010.3
20260508220059 50 174 3.0 9.0 0.00 0.00 0.00 58 1010.3
20260508215557 51 192 4.0 10.0 0.00 0.00 0.00 57 1010.2
20260508215059 51 189 5.0 10.0 0.00 0.00 0.00 56 1010.3
20260508214601 51 233 4.0 7.0 0.00 0.00 0.00 55 1010.1
20260508214100 51 159 3.0 7.0 0.00 0.00 0.00 54 1010.1
20260508213559 52 173 1.0 5.0 0.00 0.00 0.00 48 1010.0
20260508213059 52 0 0.0 6.0 0.00 0.00 0.00 46 1009.8
20260508212559 52 179 0.0 6.0 0.00 0.00 0.00 46 1009.7
20260508212101 52 84 1.0 6.0 0.00 0.00 0.00 43 1009.6
20260508211602 52 13 0.0 8.0 0.00 0.00 0.00 46 1009.6
20260508211100 52 0 4.0 8.0 0.00 0.00 0.00 44 1009.5
20260508210603 52 78 1.0 3.0 0.00 0.00 0.00 43 1009.4
20260508210059 52 0 0.0 3.0 0.00 0.00 0.00 43 1009.6
20260508205559 52 0 0.0 2.0 0.00 0.00 0.00 43 1009.5
20260508205058 52 0 0.0 5.0 0.00 0.00 0.00 40 1009.5
20260508204559 52 0 0.0 5.0 0.00 0.00 0.00 41 1009.5
20260508204059 52 55 2.0 7.0 0.00 0.00 0.00 41 1009.5
20260508203559 52 173 3.0 7.0 0.00 0.00 0.00 42 1009.5
20260508203107 53 191 2.0 7.0 0.00 0.00 0.00 44 1009.4
20260508202559 53 0 2.0 5.0 0.00 0.00 0.00 42 1009.4
20260508202059 53 135 0.0 11.0 0.00 0.00 0.00 41 1009.3
20260508201605 53 304 2.0 11.0 0.00 0.00 0.00 42 1009.4
20260508201100 54 169 1.0 9.0 0.00 0.00 0.00 41 1009.4
20260508200559 54 265 3.0 9.0 0.00 0.00 0.00 40 1009.4
20260508200058 54 131 3.0 7.0 0.00 0.00 0.00 45 1009.3
20260508195600 53 173 3.0 6.0 0.00 0.00 0.00 43 1009.4
20260508195102 53 127 0.0 7.0 0.00 0.00 0.00 42 1009.5
20260508194600 53 0 0.0 7.0 0.00 0.00 0.00 44 1009.5
20260508194100 54 5 3.0 10.0 0.00 0.00 0.00 43 1009.6
20260508193601 54 335 3.0 10.0 0.00 0.00 0.00 42 1009.3
20260508193103 55 1 3.0 12.0 0.00 0.00 0.00 41 1009.4
20260508192559 55 37 3.0 12.0 0.00 0.00 0.00 42 1009.4
20260508192058 53 288 6.0 12.0 0.00 0.00 0.00 42 1009.4
20260508191557 54 146 3.0 9.0 0.00 0.00 0.00 41 1009.5
20260508191103 54 20 3.0 10.0 0.00 0.00 0.00 40 1009.3
20260508190559 55 204 2.0 10.0 0.00 0.00 0.00 40 1009.4
20260508190058 55 352 4.0 10.0 0.00 0.00 0.00 40 1009.3
20260508185559 54 167 1.0 11.0 0.00 0.00 0.00 41 1009.4
20260508185100 54 0 2.0 11.0 0.00 0.00 0.00 43 1009.2
20260508184601 55 156 4.0 8.0 0.00 0.00 0.00 42 1009.3
20260508184101 53 0 3.0 10.0 0.00 0.00 0.00 44 1009.4
20260508183559 53 153 1.0 12.0 0.00 0.00 0.00 41 1009.6
20260508183100 54 0 4.0 12.0 0.00 0.00 0.00 41 1009.5
20260508182602 54 356 6.0 12.0 0.00 0.00 0.00 42 1009.5
20260508182102 54 105 3.0 12.0 0.00 0.00 0.00 40 1009.7
20260508181600 54 0 6.0 12.0 0.00 0.00 0.00 43 1009.6
20260508181059 54 270 3.0 8.0 0.00 0.00 0.00 41 1009.8
20260508180601 53 333 1.0 9.0 0.00 0.00 0.00 39 1009.7
20260508175600 53 107 3.0 10.0 0.00 0.00 0.00 40 1009.7
20260508175100 52 0 1.0 10.0 0.00 0.00 0.00 43 1009.8
20260508174602 53 193 4.0 10.0 0.00 0.00 0.00 40 1009.9
20260508174102 54 79 2.0 9.0 0.00 0.00 0.00 43 1009.9
20260508173603 53 240 1.0 9.0 0.00 0.00 0.00 41 1009.9
20260508173101 54 10 3.0 9.0 0.00 0.00 0.00 40 1009.9
20260508172559 54 180 3.0 16.0 0.00 0.00 0.00 48 1009.7
20260508172102 54 141 7.0 16.0 0.00 0.00 0.00 40 1009.7
20260508171601 53 174 2.0 8.0 0.00 0.00 0.00 40 1009.7
20260508171101 54 0 1.0 9.0 0.00 0.00 0.00 41 1009.6
20260508170559 53 190 3.0 9.0 0.00 0.00 0.00 41 1009.8
20260508170101 54 262 4.0 9.0 0.00 0.00 0.00 41 1009.7
20260508165559 53 89 1.0 7.0 0.00 0.00 0.00 48 1009.6
20260508165101 52 116 2.0 8.0 0.00 0.00 0.00 43 1009.8
20260508164559 52 91 1.0 8.0 0.00 0.00 0.00 40 1010.0
20260508164101 53 181 3.0 9.0 0.00 0.00 0.00 42 1010.0
20260508163559 53 0 3.0 9.0 0.00 0.00 0.00 45 1010.1
20260508163059 52 8 2.0 11.0 0.00 0.00 0.00 45 1010.0
20260508162600 51 186 1.0 11.0 0.00 0.00 0.00 45 1010.1
20260508162101 51 167 1.0 15.0 0.00 0.00 0.00 45 1010.0
20260508161602 51 250 5.0 15.0 0.00 0.00 0.00 43 1010.2
20260508161102 51 179 4.0 9.0 0.00 0.00 0.00 45 1010.1
20260508160559 50 188 2.0 8.0 0.00 0.00 0.00 47 1010.1
20260508160101 50 253 2.0 6.0 0.00 0.00 0.00 45 1010.2
20260508155604 50 0 2.0 7.0 0.00 0.00 0.00 42 1010.2
20260508155059 50 0 2.0 7.0 0.00 0.00 0.00 43 1010.2
20260508154613 50 1 1.0 15.0 0.00 0.00 0.00 45 1010.2
20260508154059 50 347 2.0 15.0 0.00 0.00 0.00 45 1010.3
20260508153601 50 0 5.0 15.0 0.00 0.00 0.00 43 1010.0
20260508153059 51 53 2.0 14.0 0.00 0.00 0.00 43 1010.0
20260508152559 51 317 1.0 14.0 0.00 0.00 0.00 46 1010.0
20260508152059 52 37 6.0 13.0 0.00 0.00 0.00 44 1009.9
20260508151600 52 337 2.0 12.0 0.00 0.00 0.00 48 1009.8
20260508151102 51 86 4.0 15.0 0.00 0.00 0.00 46 1009.8
20260508150600 50 338 7.0 17.0 0.00 0.00 0.00 46 1009.8
20260508150111 51 46 6.0 17.0 0.00 0.00 0.00 47 1009.6
20260508145559 50 354 4.0 14.0 0.00 0.00 0.00 44 1009.8
20260508145102 50 0 4.0 14.0 0.00 0.00 0.00 43 1009.8
20260508144602 51 67 1.0 8.0 0.00 0.00 0.00 46 1009.9
20260508144101 50 314 3.0 11.0 0.00 0.00 0.00 48 1010.0
20260508143602 49 51 4.0 11.0 0.00 0.00 0.00 46 1010.2
20260508143134 50 350 1.0 12.0 0.00 0.00 0.00 45 1010.2
20260508142601 49 51 3.0 16.0 0.00 0.00 0.00 46 1010.1
20260508142058 50 317 4.0 16.0 0.00 0.00 0.00 45 1010.1
20260508141607 50 356 5.0 16.0 0.00 0.00 0.00 46 1010.3
20260508141059 50 74 3.0 9.0 0.00 0.00 0.00 56 1010.3
20260508140604 50 105 1.0 9.0 0.00 0.00 0.00 46 1010.2
20260508140118 50 347 1.0 14.0 0.00 0.00 0.00 49 1010.3
20260508135600 51 85 2.0 14.0 0.00 0.00 0.00 46 1010.3
20260508135100 50 148 3.0 12.0 0.00 0.00 0.00 47 1010.2
20260508134601 49 191 2.0 12.0 0.00 0.00 0.00 48 1010.3
20260508134059 49 1 4.0 12.0 0.00 0.00 0.00 47 1010.3
20260508133603 49 0 1.0 9.0 0.00 0.00 0.00 47 1010.4
20260508133108 49 0 2.0 9.0 0.00 0.00 0.00 46 1010.5
20260508132559 50 264 2.0 8.0 0.00 0.00 0.00 45 1010.5
20260508132100 50 63 2.0 7.0 0.00 0.00 0.00 55 1010.6
20260508131605 49 134 3.0 10.0 0.00 0.00 0.00 52 1010.5
20260508131101 48 245 1.0 10.0 0.00 0.00 0.00 49 1010.6
20260508130559 49 342 4.0 10.0 0.00 0.00 0.00 49 1010.5
20260508125558 48 153 1.0 8.0 0.00 0.00 0.00 51 1010.6
20260508125059 47 43 4.0 8.0 0.00 0.00 0.00 58 1010.6
20260508124601 47 120 2.0 7.0 0.00 0.00 0.00 53 1010.6
20260508124059 48 0 1.0 7.0 0.00 0.00 0.00 56 1010.7
20260508123559 47 183 1.0 6.0 0.00 0.00 0.00 62 1010.5
20260508123100 46 144 2.0 6.0 0.00 0.00 0.00 59 1010.5
20260508122559 46 161 2.0 6.0 0.00 0.00 0.00 66 1010.5
20260508122059 45 0 1.0 4.0 0.00 0.00 0.00 58 1010.7
20260508121559 45 181 0.0 4.0 0.00 0.00 0.00 60 1010.7
20260508121100 45 0 2.0 4.0 0.00 0.00 0.00 62 1010.8
20260508120559 45 0 1.0 5.0 0.00 0.00 0.00 56 1010.8
20260508120104 46 48 1.0 6.0 0.00 0.00 0.00 58 1010.8
20260508115603 45 150 0.0 6.0 0.00 0.00 0.00 57 1010.7
20260508115059 45 111 1.0 6.0 0.00 0.00 0.00 57 1010.6
20260508114558 45 6 1.0 4.0 0.00 0.00 0.00 65 1010.7
20260508114101 44 245 1.0 4.0 0.00 0.00 0.00 72 1010.6
20260508113600 43 0 2.0 4.0 0.00 0.00 0.00 75 1010.5
20260508113100 42 167 1.0 4.0 0.00 0.00 0.00 79 1010.5